Location: Allentsteig
(48.6833°N, 15.3167°E)
Time: 16:26:45
(UTC+00:00)

USA 186 - Pass Details

Date: 18 September 2020
Orbit: 261 x 425 km, 96.9° (Epoch: 12 October)

Event Time Altitude Azimuth Distance (km) Brightness Sun altitude
Exits shadow 18:49:23 15° 191° (S) 1,192 3.9 -17.6°
Maximum altitude 18:51:45 45° 261° (W) 568 2.7 -18.0°
Drops below altitude 10° 18:54:53 10° 336° (NNW) 1,510 5.2 -18.4°
Sets 18:56:59 0° 343° (NNW) 2,395 6.2 -18.8°
